Back to catalog

TERRA

AliveScienceSSO
NORAD 25994·PAYLOAD·🇺🇸 United States

Launched Dec 18, 1999 from Vandenberg Space Force Base

Loading…

Next Passes (next 24 hours)

TLE

FreshSource: Space-Track

Epoch: Sep 14, 2026, 14:37 UTC

1 25994U 99068A   26257.60956172  .00000236  00000-0  56998-4 0  9991
2 25994  97.9370 303.5733 0001378 344.1644 176.5310 14.61160045422666

Track TERRA in real time with AllMySat

Download on the App Store